Location: Chevoux
(46.3801°N, 4.9476°E)
Time: 04:49:27
(UTC+00:00)

Envisat - Pass Details

Date: 10 December 2021
Orbit: 764 x 766 km, 98.2° (Epoch: 16 January)

Event Time Altitude Azimuth Distance (km) Brightness Sun altitude
Rises 03:28:58 0° 28° (NNE) 3,242 6.6 -37.5°
Reaches altitude 10° 03:32:00 10° 47° (NE) 2,310 6.0 -37.0°
Maximum altitude 03:35:29 18° 90° (E) 1,796 5.5 -36.4°
Drops below altitude 10° 03:38:56 10° 133° (SE) 2,297 5.9 -35.8°
Sets 03:41:56 0° 152° (SSE) 3,217 6.5 -35.3°
